Hourly Weather Roundup
Issued by NWS Central Illinois

Home | Current Version | Previous Version | Text Only | Print | Product List | Glossary On
Versions: 1 2 3 4 5 6 7 8 9 10 11 12 13 14 15 16 17 18 19 20 21 22 23 24 25 26 27 28 29 30 31 32 33 34 35 36 37 38 39 40 41 42 43 44 45 46 47 48 49 50
000
NZUS43 KILX 070510
HWRILX

AREA WEATHER ROUNDUP
NATIONAL WEATHER SERVICE, LINCOLN IL
1200 AM CDT THU MAY 07 2015


CITY           SKY/WX    TMP DP  RH WIND       PRES   REMARKS
BLOOMINGTON    CLEAR     65  55  69 S9        30.08R
CHAMPAIGN      CLEAR     64  51  62 SE7       30.07S
DANVILLE       PTCLDY    67  54  63 SE6       30.07R
DECATUR        CLEAR     67  53  61 S3        30.06S
EFFINGHAM      CLEAR     64  53  68 E3        30.08S
FLORA          CLEAR     65  56  72 CALM      30.07S
GALESBURG      PTCLDY    68  55  62 SE7       30.01S
JACKSONVILLE   CLEAR     71  54  56 SE7       30.03R
LACON          CLEAR     67  53  60 SE8       30.03R
LAWRENCEVILLE  CLEAR     67  56  67 CALM      30.08S
LITCHFIELD     CLEAR     65  53  64 SE6       30.05R
$$


CITY           SKY/WX    TMP DP  RH WIND       PRES   REMARKS
LINCOLN        CLEAR     67  54  62 S3        30.03R
MACOMB         PTCLDY    66  55  67 SE8       30.03R
MATTOON        CLEAR     68  54  60 S5        30.07R
MT CARMEL AP   CLEAR     68  54  60 CALM      30.07F
OLNEY-NOBLE AP CLEAR     66  55  68 CALM      30.08S
PARIS          CLEAR     67  55  66 SE3       30.09S
PEORIA         CLEAR     73  54  51 S8        30.03R
PONTIAC        MOCLDY    63  58  84 SE6       30.07R
RANTOUL        PTCLDY    70  55  57 SE6       30.08S
ROBINSON       CLEAR     65  55  67 SE3       30.09S
SPRINGFIELD    CLEAR     71  55  56 S10       30.04S
TAYLORVILLE    CLEAR     64  54  68 SE6       30.05S
$$

...REGIONAL REPORTS...


CITY           SKY/WX    TMP DP  RH WIND       PRES   REMARKS
CHICAGO O`HARE PTCLDY    56  50  80 E3        30.06F
KANKAKEE       PTCLDY    65  56  74 CALM      30.08R
MOLINE         MOCLDY    65  59  81 E8        29.99S
MOUNT VERNON   CLEAR    N/A N/A N/A CALM      30.06F
PITTSFIELD     CLEAR     70  52  53 S7        30.03R
QUINCY         CLEAR     68  52  56 SE7       30.00R
ROCKFORD       PTCLDY    62  56  80 S6        30.06R HAZE
$$


CITY           SKY/WX    TMP DP  RH WIND       PRES   REMARKS
BURLINGTON     MOCLDY    71  57  61 S12       29.97S
CEDAR RAPIDS   CLOUDY    64  61  90 SE8       29.94F
DES MOINES     CLOUDY    69  58  67 SE17      29.86F
KIRKSVILLE     CLEAR     65  58  78 S12       29.95S
OTTUMWA        CLEAR     65  61  87 SE12      29.92S
ST LOUIS       PTCLDY    75  53  46 SE7       30.04R
$$


CITY           SKY/WX    TMP DP  RH WIND       PRES   REMARKS
TERRE HAUTE    CLEAR     63  55  75 E3        30.09S
EVANSVILLE     CLEAR     65  59  81 CALM      30.08S
INDIANAPOLIS   CLEAR     69  52  54 S6        30.10R
LAFAYETTE      CLEAR     63  55  75 CALM      30.09R
MADISON        PTCLDY    61  56  83 SE8       30.04R HAZE
MILWAUKEE      FOG       46  45  96 CALM      30.09F VSB 1/8
$$





USA.gov is the U.S. government's official web portal to all federal, state and local government web resources and services.